Location: Unspecified
(22.6800°N, 112.2000°E)
Time: 03:27:15
(UTC+08:00)

A-11 Canister half - All Passes

Search period start: 28 July 2021 00:00
Search period end: 07 August 2021 00:00
Orbit: 1527 x 1682 km, 47.3° (Epoch: 27 July)

Date Brightness Start Highest point End Pass type
(mag) Time Alt. Az. Time Alt. Az. Time Alt. Az.
28 Jul - 09:32:11 10° S 09:40:02 26° SE 09:47:51 10° ENE daylight
28 Jul - 11:34:24 10° SW 11:44:34 78° NW 11:54:41 10° NE daylight
28 Jul - 13:42:57 10° W 13:50:59 26° NNW 13:58:56 10° NNE daylight
28 Jul - 15:54:37 10° NNW 15:59:52 15° N 16:05:03 10° NNE daylight
28 Jul - 18:00:45 10° NNW 18:08:38 27° NNE 18:16:17 10° E daylight
28 Jul - 20:05:06 10° NW 20:14:47 84° NE 20:24:09 10° SE visible
28 Jul - 22:12:27 10° W 22:19:01 21° SW 22:25:33 10° S visible
29 Jul - 09:10:50 10° S 09:18:23 24° SE 09:25:55 10° ENE daylight
29 Jul - 11:12:41 10° SW 11:22:52 83° NW 11:33:00 10° NE daylight
29 Jul - 13:20:58 10° W 13:29:11 27° NNW 13:37:18 10° NNE daylight
29 Jul - 15:32:41 10° NW 15:37:59 15° N 15:43:13 10° NNE daylight
29 Jul - 17:39:06 10° NNW 17:46:51 26° NNE 17:54:23 10° ENE daylight
29 Jul - 19:43:25 10° NW 19:53:07 80° NE 20:02:30 10° SE visible
29 Jul - 21:50:28 10° WNW 21:57:25 23° SW 22:04:17 10° S visible
30 Jul - 08:49:32 10° S 08:56:43 22° SE 09:03:55 10° E daylight
30 Jul - 10:51:00 10° SW 11:01:10 87° NW 11:11:20 10° NE daylight
30 Jul - 12:59:01 10° W 13:07:23 28° NNW 13:15:40 10° NNE daylight
30 Jul - 15:10:45 10° NW 15:16:07 15° N 15:21:23 10° NNE daylight
30 Jul - 17:17:26 10° NNW 17:25:03 25° NNE 17:32:29 10° ENE daylight
30 Jul - 19:21:44 10° NW 19:31:27 76° NE 19:40:50 10° SE visible
30 Jul - 21:28:32 10° WNW 21:35:48 25° SW 21:42:59 10° S visible
31 Jul - 08:28:17 10° SSE 08:35:05 20° SE 08:41:53 10° E daylight
31 Jul - 10:29:19 10° SW 10:39:28 89° SE 10:49:39 10° NE daylight
31 Jul - 12:37:03 10° W 12:45:34 30° NNW 12:54:02 10° NNE daylight
31 Jul - 14:48:49 10° NW 14:54:14 15° N 14:59:35 10° NNE daylight
31 Jul - 16:55:46 10° NNW 17:03:15 24° NNE 17:10:33 10° ENE daylight
31 Jul - 19:00:04 10° NW 19:09:47 72° NE 19:19:09 10° SE daylight
31 Jul - 21:06:36 10° WNW 21:14:11 27° SW 21:21:39 10° S visible
01 Aug - 08:07:04 10° SSE 08:13:26 19° SE 08:19:48 10° E daylight
01 Aug - 10:07:38 10° SW 10:17:48 85° SE 10:27:57 10° NE daylight
01 Aug - 12:15:07 10° W 12:23:47 31° NNW 12:32:24 10° NNE daylight
01 Aug - 14:26:51 10° NW 14:32:21 16° N 14:37:47 10° NNE daylight
01 Aug - 16:34:04 10° NNW 16:41:27 23° NNE 16:48:37 10° ENE daylight
01 Aug - 18:38:24 10° NW 18:48:06 68° NE 18:57:27 10° SE daylight
01 Aug - 20:44:43 10° WNW 20:52:34 29° SW 21:00:17 10° S visible
02 Aug - 07:45:57 10° SSE 07:51:47 17° SE 07:57:40 10° E daylight
02 Aug - 09:46:00 10° SW 09:56:06 81° SE 10:06:15 10° NE daylight
02 Aug - 11:53:12 10° W 12:02:00 33° NNW 12:10:46 10° NNE daylight
02 Aug - 14:04:52 10° NW 14:10:28 16° N 14:16:00 10° NNE daylight
02 Aug - 16:12:23 10° NNW 16:19:38 22° NNE 16:26:41 10° ENE daylight
02 Aug - 18:16:43 10° NW 18:26:25 64° NE 18:35:45 10° ESE daylight
02 Aug - 20:22:51 10° WNW 20:30:57 32° SW 20:38:54 10° S visible
03 Aug - 07:24:53 10° SSE 07:30:09 15° ESE 07:35:26 10° E daylight
03 Aug - 09:24:21 10° SW 09:34:25 76° SE 09:44:33 10° NE daylight
03 Aug - 11:31:17 10° W 11:40:13 34° NNW 11:49:07 10° NNE daylight
03 Aug - 13:42:52 10° NW 13:48:35 16° N 13:54:14 10° NNE daylight
03 Aug - 15:50:42 10° NNW 15:57:49 21° NNE 16:04:45 10° ENE daylight
03 Aug - 17:55:03 10° NW 18:04:43 61° NE 18:14:02 10° ESE daylight
03 Aug - 20:01:00 10° WNW 20:09:21 34° SW 20:17:30 10° S visible
04 Aug - 07:03:55 10° SSE 07:08:30 14° ESE 07:13:06 10° E daylight
04 Aug - 09:02:43 10° SW 09:12:43 72° SE 09:22:49 10° NE daylight
04 Aug - 11:09:23 10° W 11:18:26 36° NNW 11:27:28 10° NNE daylight
04 Aug - 13:20:52 10° NW 13:26:42 16° N 13:32:28 10° NNE daylight
04 Aug - 15:29:00 10° NNW 15:35:58 21° NNE 15:42:47 10° ENE daylight
04 Aug - 17:33:23 10° NW 17:43:02 58° NE 17:52:19 10° ESE daylight
04 Aug - 19:39:10 10° WNW 19:47:43 37° SW 19:56:05 10° S visible
05 Aug - 06:43:09 10° SE 06:46:52 12° ESE 06:50:35 10° E daylight
05 Aug - 08:41:07 10° SSW 08:51:03 68° SE 09:01:06 10° NE daylight
05 Aug - 10:47:30 10° W 10:56:40 38° NNW 11:05:50 10° NNE daylight
05 Aug - 12:58:52 10° NW 13:04:49 17° N 13:10:43 10° NNE daylight
05 Aug - 15:07:17 10° NNW 15:14:08 20° NNE 15:20:50 10° ENE daylight
05 Aug - 17:11:43 10° NW 17:21:19 55° NE 17:30:35 10° ESE daylight
05 Aug - 19:17:20 10° WNW 19:26:06 40° SW 19:34:38 10° SSE visible
06 Aug - 06:22:44 10° SE 06:25:13 11° ESE 06:27:43 10° ESE daylight
06 Aug - 08:19:30 10° SSW 08:29:23 64° SE 08:39:22 10° NE daylight
06 Aug - 10:25:37 10° W 10:34:53 39° NW 10:44:11 10° NNE daylight
06 Aug - 12:36:52 10° NW 12:42:56 17° N 12:48:59 10° NNE daylight
06 Aug - 14:45:34 10° NNW 14:52:18 19° NNE 14:58:53 10° ENE daylight
06 Aug - 16:50:03 10° NW 16:59:37 52° NE 17:08:49 10° ESE daylight
06 Aug - 18:55:32 10° WNW 19:04:28 43° SW 19:13:10 10° SSE daylight
